Location: Observatory Park - Geauga Park District
(41.5832°N, 81.0716°W)
Time: 17:45:34
(UTC-04:00)

N. Korean satellite - Pass Details

Date: 05 October 2021
Orbit: 450 x 495 km, 97.3° (Epoch: 21 October)

Event Time Altitude Azimuth Distance (km) Brightness Sun altitude
Rises 05:49:42 0° 28° (NNE) 2,562 10.8 -18.7°
Reaches altitude 10° 05:52:15 10° 48° (NE) 1,682 10.1 -18.2°
Maximum altitude 05:54:51 19° 94° (E) 1,240 9.6 -17.7°
Drops below altitude 10° 05:57:28 10° 140° (SE) 1,683 9.7 -17.3°
Sets 06:00:00 0° 159° (SSE) 2,562 10.4 -16.8°
